Regional Weather Roundup
Issued by NWS

Home | Current Version | Previous Version | Text Only | Print | Product List | Glossary Off
Versions: 1 2 3 4 5 6 7 8 9 10 11 12 13 14 15 16 17 18 19 20 21 22 23 24 25 26 27 28 29 30 31 32 33 34 35 36 37 38 39 40 41 42 43 44 45 46 47 48 49 50

000
ASUS43 KMKX 181500
RWRWI

WISCONSIN REGIONAL WEATHER ROUNDUP
NATIONAL WEATHER SERVICE MILWAUKEE/SULLIVAN WI
900 AM CST THU DEC 18 2014

NOTE: "FAIR" INDICATES FEW OR NO CLOUDS BELOW 12,000 FEET WITH NO
SIGNIFICANT WEATHER AND/OR OBSTRUCTIONS TO VISIBILITY.

WIZ001-002-006>008-014>016-023>028-181600-
NORTHWEST WISCONSIN

CITY           SKY/WX    TMP DP  RH WIND       PRES   REMARKS
SUPERIOR ARPT  CLOUDY    21  19  92 CALM      30.32S
ASHLAND        PTCLDY    22  17  81 E3        30.31F
HAYWARD        CLOUDY    22  17  81 CALM      30.27S
SIREN          CLOUDY    20  18  91 CALM      30.30R
CUMBERLAND     CLOUDY    21  18  86 CALM      30.27R
RICE LAKE      CLOUDY    22  19  87 E5        30.29S WCI  16
CHETEK         CLOUDY    22  19  87 NE3       30.29R
LADYSMITH      CLOUDY    23  20  88 NE5       30.28R WCI  17
EAU CLAIRE     NOT AVBL
MENOMONIE      CLOUDY    23  20  86 CALM      30.30R
NEW RICHMOND   CLOUDY    21  19  89 E3        30.29S
OSCEOLA        CLOUDY    21  18  90 CALM      30.33R
$$

WIZ003>005-009-010-017-018-181600-
NORTH CENTRAL WISCONSIN

CITY           SKY/WX    TMP DP  RH WIND       PRES   REMARKS
MANITOWISH WTR CLOUDY    19  17  90 NE6       30.24S WCI  11
ARBOR VITAE    CLOUDY    22  19  87 E5        30.24S WCI  15
WOODRUFF       CLOUDY    22  19  87 E5        30.24S WCI  15
RHINELANDER    CLOUDY    20  17  88 NE6       30.24R WCI  12
EAGLE RIVER    CLOUDY    20  15  79 NE7       30.24S WCI  11
LAND O LAKES   CLOUDY    20  17  86 NE3       30.25S
PHILLIPS       CLOUDY    19  17  89 E6        30.24R WCI  11
TOMAHAWK       CLOUDY    20  17  87 NE3       30.25S
MEDFORD        CLOUDY    21  18  86 NE6       30.24R WCI  14
MERRILL        CLOUDY    22  19  87 NE8       30.25R WCI  12
$$

WIZ029-030-035-036-043>047-181600-
CENTRAL WISCONSIN

CITY           SKY/WX    TMP DP  RH WIND       PRES   REMARKS
WAUSAU         CLOUDY    23  18  81 E7        30.25R WCI  15
MOSINEE        NOT AVBL
MARSHFIELD     CLOUDY    24  19  81 NE7       30.26R WCI  16
STEVENS POINT  CLOUDY    23  18  81 NE6       30.27R WCI  15
WAUPACA        CLOUDY    28  22  76 N5        30.28R WCI  23
WAUTOMA        CLOUDY    25  21  86 CALM      30.29R
WISC RAPIDS    CLOUDY    24  20  84 CALM      30.29R
CAMP DOUGLAS   NOT AVBL
$$

WIZ011>013-019>022-031-037>040-048>050-181600-
NORTHEAST WISCONSIN

CITY           SKY/WX    TMP DP  RH WIND       PRES   REMARKS
ANTIGO         CLOUDY    21  18  90 NE10      30.24R WCI  10
SHAWANO        CLOUDY    27  21  77 NE9       30.28S WCI  18
OCONTO         CLOUDY    26  20  79 N10       30.27F WCI  16
STURGEON BAY   CLOUDY    25  18  74 N12       30.27S WCI  14
GREEN BAY      CLOUDY    27  20  75 N7        30.28R WCI  19
MANITOWOC      NOT AVBL
APPLETON       CLOUDY    27  19  74 NE8       30.27R WCI  18
CLINTONVILLE   CLOUDY    27  19  74 NE9       30.27R WCI  17
OSHKOSH        CLOUDY    27  21  78 NE8       30.28R WCI  19
$$

WIZ032>034-041-042-053>061-181600-
SOUTHWEST WISCONSIN

CITY           SKY/WX    TMP DP  RH WIND       PRES   REMARKS
LA CROSSE      CLOUDY    23  16  74 CALM      30.31S
SPARTA         CLOUDY    21  17  84 CALM      30.31R
VIROQUA        CLOUDY    21  19  91 CALM      30.26S
BOSCOBEL       MOSUNNY   16  12  84 CALM      30.32R
PRAIRIE DU CHI SUNNY     17  13  84 CALM      30.32R
PLATTEVILLE    MOSUNNY   17  14  89 CALM      30.30R
$$

WIZ056-057-062-063-064-067-068-181600-
SOUTH CENTRAL WISCONSIN

CITY           SKY/WX    TMP DP  RH WIND       PRES   REMARKS
REEDSBURG      CLOUDY    22  18  82 CALM      30.28S
BARABOO/DELLS  CLOUDY    22  18  83 CALM      30.28R
LONE ROCK      NOT AVBL
MINERAL POINT  MOSUNNY   19  16  86 CALM      30.27R
MADISON        CLOUDY    22  18  85 CALM      30.28S
MIDDLETON      CLOUDY    22  18  84 CALM      30.28S
WATERTOWN      CLOUDY    23  21  94 W5        30.28R WCI  16
MONROE         CLOUDY    19  18  93 CALM      30.27R
JANESVILLE     CLOUDY    21  18  86 W6        30.29R WCI  14
$$

WIZ051-052-058>065-066-070>072-181600-
SOUTHEAST WISCONSIN

CITY           SKY/WX    TMP DP  RH WIND       PRES   REMARKS
MILWAUKEE      CLOUDY    24  18  77 NW7       30.28R WCI  16
WAUKESHA       CLOUDY    21  19  93 W5        30.28R FOG     WCI  15
MILWAUKEE/TIMM CLOUDY    25  21  86 CALM      30.28R
RACINE         CLOUDY    21  16  81 W8        30.29R WCI  11
BURLINGTON     CLOUDY    18  15  91 SW3       30.28S
KENOSHA        MOSUNNY   21  17  84 W5        30.28R WCI  15
FOND DU LAC    CLOUDY    27  22  81 NW3       30.28R
SHEBOYGAN      CLOUDY    27  22  81 N7        30.27R WCI  19
WEST BEND      CLOUDY    27  21  80 CALM      30.26R
JUNEAU         CLOUDY    24  20  87 W3        30.28R
$$

LSZ147-162-181600-
LAKE SUPERIOR

STATION/POSITION TIME  TEMP    WIND        PRES    WAVE
                       AIR SEA DIR/SP/G            HT/PER
                 (UTC) (F)     (DEG/KT/KT) (MB)    (FT/S)
DEVILS ISLAND    1400   27      80/  7/  9 1027.9F
PORT WING        1400   24     100/  3/  5 1026.4F
SAXON HARBOR     1440   19      CALM  /  4 1026.4S
$$

LMZ867-665-643>646-181600-
LAKE MICHIGAN

STATION/POSITION TIME  TEMP    WIND        PRES    WAVE
                       AIR SEA DIR/SP/G            HT/PER
                 (UTC) (F)     (DEG/KT/KT) (MB)    (FT/S)
CHAMBERS ISLAND  1400   27      10/ 14/ 19 1025.4R
NORTHPORT PIER   1400   25      30/  8/ 11 1025.1R
SISTER BAY       1343           30/  5/  7   N/A
ALGOMA LAKESHORE 1414           10/ 11/ 14   N/A
KEWAUNEE LAKESHO 1406   27     360/  7/ 11 1023.5S
SHEBOYGAN LAKESH 1400   28 34  320/ 10/ 13 1025.7R
PORT WASHINGTON  1400   26     300/  5/  8 1025.7R
MILWAUKEE LAKESH 1400   25     270/  6/  8   N/A
KENOSHA   LAKESH 1400   20     250/ 10/ 10 1025.4R
$$

TC  - TEMPERATURE IN CELSIUS
VSB - VISIBILITY IN STATUTE MILES
WCI - WIND CHILL INDEX
HX  - HEAT INDEX




USA.gov is the U.S. government's official web portal to all federal, state and local government web resources and services.